This demonstration page uses our WeatherBlox Daily Observations layout. Learn more.

Left ArrowRight Arrow

40.92945, -100.16068

Hourly Observations for May 9, 2015

Temp ( °F °C ) Dew Point ( °F °C ) Humidity (%) Winds ( mph kmh ) Pressure ( in mb ) Visibility ( mi km ) Precip ( " mm )
12:15 am 00:15 Mostly Cloudy 54 12.4 49 9.6 83 83 E 9 15 30.03 1017 10 16.0934 N/A
12:35 am 00:35 Mostly Cloudy 53 11.9 49 9.5 85 85 E 9 15 30.03 1017 10 16.0934 N/A
12:55 am 00:55 Cloudy 53 11.5 49 9.5 88 88 E 7 11 30.03 1017 7 11.26538 N/A
1:15 am 01:15 Mostly Cloudy 51 10.8 48 9.1 89 89 E 6 9 30.03 1017 7 11.26538 N/A
1:35 am 01:35 Mostly Cloudy 52 11 49 9.6 91 91 E 6 9 30.03 1017 7 11.26538 N/A
1:55 am 01:55 Cloudy 53 11.6 50 10 90 90 E 12 19 30.03 1017 7 11.26538 N/A
2:15 am 02:15 Cloudy 53 11.5 49 9.7 89 89 E 12 19 30.03 1017 7 11.26538 N/A
2:35 am 02:35 Cloudy 52 11.2 49 9.7 91 91 E 10 17 30.03 1017 7 11.26538 N/A
2:55 am 02:55 Cloudy 52 11.1 49 9.7 91 91 E 9 15 30.03 1017 7 11.26538 N/A
3:15 am 03:15 Cloudy 52 11 49 9.6 91 91 E 10 17 30.03 1017 7 11.26538 N/A
3:35 am 03:35 Cloudy 51 10.8 49 9.5 92 92 ENE 12 19 30.03 1017 7 11.26538 N/A
3:55 am 03:55 Cloudy 51 10.7 49 9.3 91 91 E 13 20 30.03 1017 7 11.26538 N/A
4:15 am 04:15 Cloudy 51 10.6 49 9.2 91 91 E 14 22 30.03 1017 7 11.26538 N/A
4:35 am 04:35 Cloudy 51 10.7 49 9.2 91 91 E 12 19 30.03 1017 7 11.26538 N/A
4:55 am 04:55 Cloudy 51 10.7 49 9.2 91 91 E 10 17 30.03 1017 7 11.26538 N/A
5:15 am 05:15 Cloudy 51 10.7 49 9.2 91 91 E 13 20 30.03 1017 7 11.26538 N/A
5:35 am 05:35 Cloudy with Mist and Fog 51 10.6 49 9.3 92 92 E 16 26 30.03 1017 5 8.0467 N/A
5:55 am 05:55 Cloudy with Mist and Fog 51 10.5 49 9.2 92 92 E 15 24 30.03 1017 5 8.0467 N/A
6:15 am 06:15 Cloudy with Mist and Fog 51 10.5 49 9.3 92 92 E 16 26 30.03 1017 5 8.0467 N/A
6:35 am 06:35 Cloudy with Light Rain 51 10.5 49 9.2 92 92 E 17 28 30 1016 5 8.0467 N/A
6:55 am 06:55 Cloudy with Rain 51 10.5 49 9.3 92 92 E 13 20 30 1016 2.5 4.02335 N/A
7:15 am 07:15 Cloudy with Mist and Fog 51 10.3 49 9.3 94 94 E 18 30 30 1016 2.5 4.02335 N/A
7:35 am 07:35 Cloudy with Mist and Fog 51 10.3 49 9.3 94 94 E 17 28 30 1016 3 4.82802 N/A
7:55 am 07:55 Cloudy with Mist and Fog 50 10 48 9.1 94 94 E 20 31 29.97 1015 2.5 4.02335 N/A
8:15 am 08:15 Cloudy with Mist and Fog 50 9.8 48 8.9 94 94 E 20 31 30 1016 2 3.21868 N/A
8:35 am 08:35 Cloudy with Light Rain 49 9.6 48 8.7 94 94 E 14 22 30 1016 1.75 2.816345 N/A
8:55 am 08:55 Cloudy with Mist and Fog 49 9.5 47 8.6 94 94 E 17 28 30 1016 1.5 2.41401 N/A
9:15 am 09:15 Cloudy with Mist and Fog 49 9.5 47 8.5 94 94 ENE 18 30 30 1016 1.5 2.41401 0.01 0.254
9:35 am 09:35 Cloudy with Mist and Fog 49 9.2 47 8.5 95 95 E 14 22 30.03 1017 1.5 2.41401 0.01 0.254
9:55 am 09:55 Cloudy with Rain 49 9.2 47 8.5 95 95 E 16 26 30.03 1017 1.25 2.011675 0.01 0.254
10:15 am 10:15 Cloudy with Heavy Rain 48 9.1 47 8.3 95 95 E 14 22 30.06 1018 1.5 2.41401 0.01 0.254
10:35 am 10:35 Cloudy with Drizzle 48 9 47 8.2 95 95 ENE 15 24 30.06 1018 1.25 2.011675 0.02 0.508
10:55 am 10:55 Cloudy with Drizzle 48 9 47 8.1 94 94 ENE 17 28 30.06 1018 1.25 2.011675 0.03 0.762
11:15 am 11:15 Cloudy with Mist and Fog 48 9 47 8.2 95 95 E 15 24 30.06 1018 1.75 2.816345 N/A
11:35 am 11:35 Cloudy with Drizzle 47 8.5 46 7.6 94 94 E 12 19 30.06 1018 1.5 2.41401 0.02 0.508
11:55 am 11:55 Cloudy with Light Rain 48 8.7 46 7.9 95 95 ENE 14 22 30.06 1018 1.5 2.41401 0.03 0.762
12:15 pm 12:15 Cloudy with Mist and Fog 47 8.6 46 7.8 95 95 E 12 19 30.06 1018 2 3.21868 N/A
12:35 pm 12:35 Cloudy with Mist and Fog 48 9 47 8.1 94 94 E 14 22 30.06 1018 1.75 2.816345 N/A
12:55 pm 12:55 Cloudy with Mist and Fog 48 9.1 47 8.3 95 95 ENE 15 24 30.03 1017 2 3.21868 N/A
1:15 pm 13:15 Cloudy with Mist and Fog 49 9.4 47 8.5 94 94 ENE 17 28 30 1016 3 4.82802 N/A
1:35 pm 13:35 Cloudy with Mist and Fog 49 9.5 47 8.6 94 94 E 20 31 29.94 1014 4 6.43736 N/A
1:55 pm 13:55 Cloudy with Mist and Fog 49 9.5 47 8.6 94 94 E 21 33 29.94 1014 3 4.82802 N/A
2:15 pm 14:15 Cloudy with Mist and Fog 49 9.5 47 8.5 94 94 E 18 30 29.94 1014 3 4.82802 N/A
2:35 pm 14:35 Cloudy with Mist and Fog 49 9.3 47 8.4 94 94 E 16 26 29.97 1015 2.5 4.02335 N/A
2:55 pm 14:55 Cloudy with Mist and Fog 49 9.3 47 8.5 95 95 ENE 17 28 29.94 1014 2.5 4.02335 N/A
3:15 pm 15:15 Cloudy with Mist and Fog 49 9.4 47 8.5 94 94 E 22 35 29.94 1014 1.75 2.816345 N/A
3:35 pm 15:35 Cloudy with Mist and Fog 49 9.5 47 8.6 94 94 E 26 43 29.88 1012 1.25 2.011675 N/A
3:55 pm 15:55 Cloudy with Mist and Fog 49 9.5 48 8.7 95 95 E 22 35 29.88 1012 1 1.60934 N/A
4:15 pm 16:15 Cloudy with Light Rain 49 9.5 48 8.7 95 95 ENE 25 41 29.83 1010 0.75 1.207005 N/A
4:35 pm 16:35 Cloudy with Light Rain 49 9.7 48 9 95 95 E 25 41 29.85 1011 0.75 1.207005 N/A
4:55 pm 16:55 Cloudy with Light Rain 50 10 49 9.5 97 97 ENE 23 37 29.83 1010 0.75 1.207005 N/A
5:15 pm 17:15 Cloudy with Mist and Fog 51 10.5 50 9.8 95 95 ENE 20 31 29.85 1011 0.75 1.207005 N/A
5:35 pm 17:35 Cloudy with Mist and Fog 51 10.7 50 10.1 96 96 ENE 17 28 29.85 1011 1 1.60934 N/A
5:55 pm 17:55 Cloudy with Mist and Fog 52 11.2 51 10.6 96 96 ENE 20 31 29.85 1011 1.25 2.011675 N/A
6:15 pm 18:15 Cloudy with Mist and Fog 53 11.5 51 10.8 96 96 ENE 16 26 29.85 1011 1 1.60934 N/A
6:35 pm 18:35 Cloudy with Light Rain 53 11.7 52 11.1 96 96 ENE 14 22 29.85 1011 0.75 1.207005 N/A
6:55 pm 18:55 Cloudy with Drizzle 54 12 52 11.3 96 96 ENE 16 26 29.83 1010 0.75 1.207005 N/A
7:15 pm 19:15 Cloudy with Light Rain 54 12.1 53 11.5 96 96 ENE 16 26 29.8 1009 1 1.60934 0.02 0.508
7:35 pm 19:35 Cloudy with Nearby Thunderstorms 54 12.3 53 11.7 96 96 ENE 16 26 29.8 1009 1 1.60934 0.02 0.508
7:55 pm 19:55 Cloudy with Nearby Thunderstorms 55 12.5 54 12 97 97 ENE 21 33 29.77 1008 1.5 2.41401 0.02 0.508
8:15 pm 20:15 Windy with Storms Likely 55 12.6 54 12 96 96 ENE 21 33 29.77 1008 1.5 2.41401 0.02 0.508
8:35 pm 20:35 Cloudy with Rain 55 12.7 54 12.1 96 96 NE 15 24 29.77 1008 2.5 4.02335 0.05 1.27
8:55 pm 20:55 Cloudy with Heavy Rain 52 11.1 51 10.5 96 96 NE 15 24 29.8 1009 1.75 2.816345 0.2 5.08
9:15 pm 21:15 Cloudy with Heavy Rain 53 11.5 52 10.9 96 96 NE 15 24 29.8 1009 1.5 2.41401 0.25 6.35
9:35 pm 21:35 Cloudy with Light Rain 52 11.3 51 10.7 96 96 NE 10 17 29.8 1009 2.5 4.02335 0.31 7.874
9:55 pm 21:55 Cloudy with Rain 53 11.5 51 10.8 96 96 NNE 8 13 29.77 1008 3 4.82802 0.31 7.874
10:15 pm 22:15 Cloudy with Nearby Thunderstorms 56 13.5 55 13 97 97 E 9 15 29.77 1008 3 4.82802 0.01 0.254
10:35 pm 22:35 Cloudy 57 13.7 56 13.1 96 96 ENE 10 17 29.74 1007 7 11.26538 0.01 0.254
10:55 pm 22:55 Cloudy with Rain 58 14.2 56 13.6 96 96 E 9 15 29.74 1007 4 6.43736 0.05 1.27
11:15 pm 23:15 Cloudy 59 15 58 14.4 96 96 ESE 10 17 29.71 1006 5 8.0467 0.07 1.778
11:35 pm 23:35 Cloudy with Mist and Fog 60 15.5 59 14.8 96 96 ESE 10 17 29.71 1006 5 8.0467 0.08 2.032
11:55 pm 23:55 Cloudy 60 15.8 59 15.1 96 96 ESE 14 22 29.71 1006 7 11.26538 0.08 2.032

Powered by AerisWeather